Time,TemperatureF,DewpointF,PressureIn,WindDirection,WindDirectionDegrees,WindSpeedMPH,WindSpeedGustMPH,Humidity,HourlyPrecipIn,Conditions,Clouds,dailyrainin,SoftwareType,DateUTC
2013-10-06 00:03:00,53.8,37.1,30.00,East,96,0.0,0.0,53,0.00,,,0.00,Wunderground v.1.15,2013-10-06 07:03:00,
2013-10-06 00:09:00,53.8,37.5,30.00,East,96,0.0,2.0,54,0.00,,,0.00,Wunderground v.1.15,2013-10-06 07:09:00,
2013-10-06 00:14:00,53.6,37.8,30.00,East,96,0.0,1.0,55,0.00,,,0.00,Wunderground v.1.15,2013-10-06 07:14:00,
2013-10-06 00:20:00,53.5,37.7,30.00,East,96,0.0,0.0,55,0.00,,,0.00,Wunderground v.1.15,2013-10-06 07:20:00,
2013-10-06 00:25:00,53.3,36.6,30.00,East,96,0.0,0.0,53,0.00,,,0.00,Wunderground v.1.15,2013-10-06 07:25:00,
2013-10-06 00:30:00,53.3,36.6,30.00,East,96,0.0,0.0,53,0.00,,,0.00,Wunderground v.1.15,2013-10-06 07:30:00,
2013-10-06 00:35:00,53.3,36.1,30.00,East,96,0.0,0.0,52,0.00,,,0.00,Wunderground v.1.15,2013-10-06 07:35:00,
2013-10-06 00:41:00,53.3,36.1,30.00,East,96,0.0,0.0,52,0.00,,,0.00,Wunderground v.1.15,2013-10-06 07:41:00,
2013-10-06 00:46:00,53.3,35.6,30.00,East,96,0.0,0.0,51,0.00,,,0.00,Wunderground v.1.15,2013-10-06 07:46:00,
2013-10-06 00:51:00,53.2,35.5,30.00,East,96,0.0,0.0,51,0.00,,,0.00,Wunderground v.1.15,2013-10-06 07:51:00,
2013-10-06 00:56:00,53.1,35.9,30.00,East,96,0.0,0.0,52,0.00,,,0.00,Wunderground v.1.15,2013-10-06 07:56:00,
2013-10-06 01:02:00,52.9,35.2,29.99,East,96,0.0,0.0,51,0.00,,,0.00,Wunderground v.1.15,2013-10-06 08:02:00,
2013-10-06 01:08:00,52.9,34.8,29.99,East,96,0.0,0.0,50,0.00,,,0.00,Wunderground v.1.15,2013-10-06 08:08:00,
2013-10-06 01:13:00,53.1,35.9,29.99,East,96,0.0,0.0,52,0.00,,,0.00,Wunderground v.1.15,2013-10-06 08:13:00,
2013-10-06 01:18:00,53.2,35.5,29.99,East,96,0.0,0.0,51,0.00,,,0.00,Wunderground v.1.15,2013-10-06 08:18:00,
2013-10-06 01:23:00,53.2,36.0,29.99,East,96,0.0,0.0,52,0.00,,,0.00,Wunderground v.1.15,2013-10-06 08:23:00,
2013-10-06 01:29:00,53.2,36.5,29.99,East,96,0.0,0.0,53,0.00,,,0.00,Wunderground v.1.15,2013-10-06 08:29:00,
2013-10-06 01:34:00,53.2,36.0,29.99,East,96,0.0,0.0,52,0.00,,,0.00,Wunderground v.1.15,2013-10-06 08:34:00,
2013-10-06 01:39:00,53.1,35.9,29.99,East,96,0.0,0.0,52,0.00,,,0.00,Wunderground v.1.15,2013-10-06 08:39:00,
2013-10-06 01:45:00,53.2,36.0,29.99,East,96,0.0,0.0,52,0.00,,,0.00,Wunderground v.1.15,2013-10-06 08:45:00,
2013-10-06 01:50:00,53.3,36.1,29.99,East,96,0.0,0.0,52,0.00,,,0.00,Wunderground v.1.15,2013-10-06 08:50:00,
2013-10-06 01:55:00,53.6,36.4,29.99,East,96,0.0,0.0,52,0.00,,,0.00,Wunderground v.1.15,2013-10-06 08:55:00,
2013-10-06 02:01:00,54.4,36.1,29.99,East,96,0.0,0.0,50,0.00,,,0.00,Wunderground v.1.15,2013-10-06 09:01:00,
2013-10-06 02:06:00,55.6,36.2,29.99,East,96,0.0,0.0,48,0.00,,,0.00,Wunderground v.1.15,2013-10-06 09:06:00,
2013-10-06 02:09:00,56.3,35.8,29.99,East,96,0.0,1.0,46,0.00,,,0.00,Wunderground v.1.15,2013-10-06 09:09:00,
2013-10-06 02:14:00,57.3,35.6,29.99,East,96,0.0,1.0,44,0.00,,,0.00,Wunderground v.1.15,2013-10-06 09:14:00,
2013-10-06 02:19:00,58.3,35.9,29.99,East,96,0.0,2.0,43,0.00,,,0.00,Wunderground v.1.15,2013-10-06 09:19:00,
2013-10-06 02:24:00,59.0,35.9,29.99,East,96,0.0,0.0,42,0.00,,,0.00,Wunderground v.1.15,2013-10-06 09:24:00,
2013-10-06 02:29:00,59.8,35.4,29.99,East,96,0.0,2.0,40,0.00,,,0.00,Wunderground v.1.15,2013-10-06 09:29:00,
2013-10-06 02:34:00,60.5,35.4,29.98,East,96,2.0,2.0,39,0.00,,,0.00,Wunderground v.1.15,2013-10-06 09:34:00,
2013-10-06 02:39:00,61.3,35.5,29.98,East,96,0.0,2.0,38,0.00,,,0.00,Wunderground v.1.15,2013-10-06 09:39:00,
2013-10-06 02:44:00,62.0,35.4,29.98,East,96,0.0,2.0,37,0.00,,,0.00,Wunderground v.1.15,2013-10-06 09:44:00,
2013-10-06 02:49:00,63.1,35.0,29.97,ESE,103,0.0,4.0,35,0.00,,,0.00,Wunderground v.1.15,2013-10-06 09:49:00,
2013-10-06 02:54:00,63.7,34.8,29.97,ESE,103,0.0,1.0,34,0.00,,,0.00,Wunderground v.1.15,2013-10-06 09:54:00,
2013-10-06 02:59:00,64.2,35.2,29.97,ESE,103,0.0,1.0,34,0.00,,,0.00,Wunderground v.1.15,2013-10-06 09:59:00,
2013-10-06 03:04:00,64.7,34.9,29.97,ESE,103,0.0,1.0,33,0.00,,,0.00,Wunderground v.1.15,2013-10-06 10:04:00,
2013-10-06 03:09:00,65.0,34.4,29.97,ESE,103,1.0,1.0,32,0.00,,,0.00,Wunderground v.1.15,2013-10-06 10:09:00,
2013-10-06 03:14:00,65.2,34.6,29.97,ESE,103,0.0,1.0,32,0.00,,,0.00,Wunderground v.1.15,2013-10-06 10:14:00,
2013-10-06 03:19:00,65.2,34.6,29.96,ESE,103,0.0,1.0,32,0.00,,,0.00,Wunderground v.1.15,2013-10-06 10:19:00,
2013-10-06 03:24:00,65.2,34.6,29.96,ESE,103,2.0,2.0,32,0.00,,,0.00,Wunderground v.1.15,2013-10-06 10:24:00,
2013-10-06 03:29:00,65.3,34.7,29.96,ESE,103,0.0,3.0,32,0.00,,,0.00,Wunderground v.1.15,2013-10-06 10:29:00,
2013-10-06 03:34:00,65.3,34.7,29.96,ESE,103,0.0,2.0,32,0.00,,,0.00,Wunderground v.1.15,2013-10-06 10:34:00,
2013-10-06 03:39:00,65.2,34.6,29.96,ESE,103,0.0,2.0,32,0.00,,,0.00,Wunderground v.1.15,2013-10-06 10:39:00,
2013-10-06 03:44:00,65.3,34.7,29.96,ESE,103,1.0,1.0,32,0.00,,,0.00,Wunderground v.1.15,2013-10-06 10:44:00,
2013-10-06 03:49:00,65.2,34.6,29.96,ESE,103,2.0,2.0,32,0.00,,,0.00,Wunderground v.1.15,2013-10-06 10:49:00,
2013-10-06 03:54:00,65.5,34.0,29.96,West,278,2.0,2.0,31,0.00,,,0.00,Wunderground v.1.15,2013-10-06 10:54:00,
2013-10-06 03:59:00,65.5,34.0,29.96,West,278,0.0,2.0,31,0.00,,,0.00,Wunderground v.1.15,2013-10-06 10:59:00,
2013-10-06 04:04:00,65.5,34.0,29.96,West,278,0.0,3.0,31,0.00,,,0.00,Wunderground v.1.15,2013-10-06 11:04:00,
2013-10-06 04:09:00,65.6,34.1,29.96,West,278,2.0,3.0,31,0.00,,,0.00,Wunderground v.1.15,2013-10-06 11:09:00,
2013-10-06 04:14:00,65.5,34.0,29.96,West,278,1.0,3.0,31,0.00,,,0.00,Wunderground v.1.15,2013-10-06 11:14:00,
2013-10-06 04:19:00,65.3,33.9,29.96,West,278,0.0,3.0,31,0.00,,,0.00,Wunderground v.1.15,2013-10-06 11:19:00,
2013-10-06 04:24:00,65.0,34.4,29.96,West,278,0.0,1.0,32,0.00,,,0.00,Wunderground v.1.15,2013-10-06 11:24:00,
2013-10-06 04:29:00,64.8,33.4,29.96,West,278,1.0,2.0,31,0.00,,,0.00,Wunderground v.1.15,2013-10-06 11:29:00,
2013-10-06 04:34:00,65.0,33.6,29.96,West,278,0.0,2.0,31,0.00,,,0.00,Wunderground v.1.15,2013-10-06 11:34:00,
2013-10-06 04:39:00,64.7,34.1,29.96,West,278,0.0,2.0,32,0.00,,,0.00,Wunderground v.1.15,2013-10-06 11:39:00,
2013-10-06 04:44:00,64.2,34.5,29.96,West,278,2.0,2.0,33,0.00,,,0.00,Wunderground v.1.15,2013-10-06 11:44:00,
2013-10-06 04:49:00,64.0,34.3,29.96,West,278,1.0,3.0,33,0.00,,,0.00,Wunderground v.1.15,2013-10-06 11:49:00,
2013-10-06 04:54:00,64.2,34.5,29.96,West,278,1.0,2.0,33,0.00,,,0.00,Wunderground v.1.15,2013-10-06 11:54:00,
2013-10-06 04:59:00,64.2,34.5,29.96,West,278,2.0,3.0,33,0.00,,,0.00,Wunderground v.1.15,2013-10-06 11:59:00,
2013-10-06 05:04:00,64.3,34.6,29.96,West,278,1.0,2.0,33,0.00,,,0.00,Wunderground v.1.15,2013-10-06 12:04:00,
2013-10-06 05:09:00,64.2,34.5,29.96,West,278,0.0,2.0,33,0.00,,,0.00,Wunderground v.1.15,2013-10-06 12:09:00,
2013-10-06 05:14:00,63.9,35.0,29.96,West,278,0.0,1.0,34,0.00,,,0.00,Wunderground v.1.15,2013-10-06 12:14:00,
2013-10-06 05:19:00,63.7,34.8,29.96,West,278,0.0,2.0,34,0.00,,,0.00,Wunderground v.1.15,2013-10-06 12:19:00,
2013-10-06 05:24:00,63.9,35.0,29.96,West,278,0.0,1.0,34,0.00,,,0.00,Wunderground v.1.15,2013-10-06 12:24:00,
2013-10-06 05:29:00,63.9,35.0,29.96,West,278,0.0,1.0,34,0.00,,,0.00,Wunderground v.1.15,2013-10-06 12:29:00,
2013-10-06 05:34:00,63.5,34.6,29.96,West,278,0.0,1.0,34,0.00,,,0.00,Wunderground v.1.15,2013-10-06 12:34:00,
2013-10-06 05:39:00,63.1,35.0,29.96,West,278,0.0,1.0,35,0.00,,,0.00,Wunderground v.1.15,2013-10-06 12:39:00,
2013-10-06 05:44:00,62.9,34.8,29.96,West,278,2.0,2.0,35,0.00,,,0.00,Wunderground v.1.15,2013-10-06 12:44:00,
2013-10-06 05:49:00,62.9,34.8,29.96,West,278,1.0,2.0,35,0.00,,,0.00,Wunderground v.1.15,2013-10-06 12:49:00,
2013-10-06 05:54:00,62.9,34.8,29.96,West,278,0.0,2.0,35,0.00,,,0.00,Wunderground v.1.15,2013-10-06 12:54:00,
2013-10-06 05:59:00,62.7,34.6,29.96,West,278,0.0,2.0,35,0.00,,,0.00,Wunderground v.1.15,2013-10-06 12:59:00,
2013-10-06 06:04:00,62.4,35.1,29.97,West,278,0.0,2.0,36,0.00,,,0.00,Wunderground v.1.15,2013-10-06 13:04:00,
2013-10-06 06:09:00,62.4,34.4,29.97,West,278,0.0,2.0,35,0.00,,,0.00,Wunderground v.1.15,2013-10-06 13:09:00,
2013-10-06 06:14:00,62.3,35.0,29.97,West,278,0.0,0.0,36,0.00,,,0.00,Wunderground v.1.15,2013-10-06 13:14:00,
2013-10-06 06:19:00,62.0,34.7,29.98,West,278,0.0,1.0,36,0.00,,,0.00,Wunderground v.1.15,2013-10-06 13:19:00,
2013-10-06 06:24:00,61.8,33.8,29.98,West,278,0.0,0.0,35,0.00,,,0.00,Wunderground v.1.15,2013-10-06 13:24:00,
2013-10-06 06:29:00,61.5,35.0,29.98,West,278,0.0,0.0,37,0.00,,,0.00,Wunderground v.1.15,2013-10-06 13:29:00,
2013-10-06 06:34:00,61.3,34.1,29.98,West,278,0.0,0.0,36,0.00,,,0.00,Wunderground v.1.15,2013-10-06 13:34:00,
2013-10-06 06:39:00,61.3,34.1,29.98,West,278,0.0,1.0,36,0.00,,,0.00,Wunderground v.1.15,2013-10-06 13:39:00,
2013-10-06 06:44:00,61.0,34.5,29.98,West,278,0.0,1.0,37,0.00,,,0.00,Wunderground v.1.15,2013-10-06 13:44:00,
2013-10-06 06:49:00,60.9,34.4,29.98,West,278,0.0,1.0,37,0.00,,,0.00,Wunderground v.1.15,2013-10-06 13:49:00,
2013-10-06 06:54:00,60.7,34.3,29.98,West,278,0.0,0.0,37,0.00,,,0.00,Wunderground v.1.15,2013-10-06 13:54:00,
2013-10-06 06:59:00,60.9,34.4,29.98,West,278,0.0,0.0,37,0.00,,,0.00,Wunderground v.1.15,2013-10-06 13:59:00,
2013-10-06 07:04:00,61.2,34.0,29.98,West,278,0.0,1.0,36,0.00,,,0.00,Wunderground v.1.15,2013-10-06 14:04:00,
2013-10-06 07:09:00,61.2,34.7,29.98,West,278,0.0,0.0,37,0.00,,,0.00,Wunderground v.1.15,2013-10-06 14:09:00,
2013-10-06 07:14:00,60.9,35.1,29.98,West,278,0.0,0.0,38,0.00,,,0.00,Wunderground v.1.15,2013-10-06 14:14:00,
2013-10-06 07:19:00,60.7,34.9,29.98,West,278,0.0,0.0,38,0.00,,,0.00,Wunderground v.1.15,2013-10-06 14:19:00,
2013-10-06 07:24:00,60.9,35.1,29.98,West,278,0.0,0.0,38,0.00,,,0.00,Wunderground v.1.15,2013-10-06 14:24:00,
2013-10-06 07:29:00,61.2,34.7,29.98,West,278,0.0,0.0,37,0.00,,,0.00,Wunderground v.1.15,2013-10-06 14:29:00,
2013-10-06 07:34:00,61.5,35.0,29.99,West,278,0.0,0.0,37,0.00,,,0.00,Wunderground v.1.15,2013-10-06 14:34:00,
2013-10-06 07:39:00,62.1,35.5,29.99,West,278,0.0,0.0,37,0.00,,,0.00,Wunderground v.1.15,2013-10-06 14:39:00,
2013-10-06 07:44:00,62.7,35.3,29.99,West,278,0.0,0.0,36,0.00,,,0.00,Wunderground v.1.15,2013-10-06 14:44:00,
2013-10-06 07:49:00,63.5,36.0,29.99,West,278,0.0,0.0,36,0.00,,,0.00,Wunderground v.1.15,2013-10-06 14:49:00,
2013-10-06 07:54:00,64.3,36.8,29.99,West,278,0.0,0.0,36,0.00,,,0.00,Wunderground v.1.15,2013-10-06 14:54:00,
2013-10-06 07:59:00,65.0,36.7,29.99,West,278,0.0,0.0,35,0.00,,,0.00,Wunderground v.1.15,2013-10-06 14:59:00,
2013-10-06 08:04:00,65.8,37.4,29.99,West,278,0.0,0.0,35,0.00,,,0.00,Wunderground v.1.15,2013-10-06 15:04:00,
2013-10-06 08:09:00,66.6,37.3,29.99,West,278,0.0,0.0,34,0.00,,,0.00,Wunderground v.1.15,2013-10-06 15:09:00,
2013-10-06 08:14:00,68.1,37.1,29.99,West,278,0.0,0.0,32,0.00,,,0.00,Wunderground v.1.15,2013-10-06 15:14:00,
2013-10-06 08:19:00,68.9,37.0,29.99,West,278,0.0,0.0,31,0.00,,,0.00,Wunderground v.1.15,2013-10-06 15:19:00,
2013-10-06 08:24:00,70.1,38.0,29.99,West,278,0.0,0.0,31,0.00,,,0.00,Wunderground v.1.15,2013-10-06 15:24:00,
2013-10-06 08:29:00,71.6,36.8,29.99,West,278,0.0,0.0,28,0.00,,,0.00,Wunderground v.1.15,2013-10-06 15:29:00,
2013-10-06 08:34:00,72.8,37.8,29.99,West,278,0.0,0.0,28,0.00,,,0.00,Wunderground v.1.15,2013-10-06 15:34:00,
2013-10-06 08:40:00,74.0,37.9,29.99,West,278,0.0,0.0,27,0.00,,,0.00,Wunderground v.1.15,2013-10-06 15:40:00,
2013-10-06 08:45:00,75.6,39.2,29.99,WNW,297,0.0,1.0,27,0.00,,,0.00,Wunderground v.1.15,2013-10-06 15:45:00,
2013-10-06 08:50:00,76.8,39.3,29.99,ENE,69,0.0,0.0,26,0.00,,,0.00,Wunderground v.1.15,2013-10-06 15:50:00,
2013-10-06 08:55:00,77.7,35.8,29.99,ENE,69,0.0,1.0,22,0.00,,,0.00,Wunderground v.1.15,2013-10-06 15:55:00,
2013-10-06 09:00:00,78.8,37.9,29.99,ENE,71,0.0,0.0,23,0.00,,,0.00,Wunderground v.1.15,2013-10-06 16:00:00,
2013-10-06 09:05:00,79.6,37.4,29.99,ENE,74,1.0,3.0,22,0.00,,,0.00,Wunderground v.1.15,2013-10-06 16:05:00,
2013-10-06 09:10:00,80.3,35.6,29.99,ESE,114,1.0,1.0,20,0.00,,,0.00,Wunderground v.1.15,2013-10-06 16:10:00,
2013-10-06 09:15:00,80.7,34.6,29.99,East,88,0.0,7.0,19,0.00,,,0.00,Wunderground v.1.15,2013-10-06 16:15:00,
2013-10-06 09:20:00,81.1,33.6,29.99,East,101,2.0,3.0,18,0.00,,,0.00,Wunderground v.1.15,2013-10-06 16:20:00,
2013-10-06 09:25:00,81.8,34.1,29.99,ENE,75,4.0,5.0,18,0.00,,,0.00,Wunderground v.1.15,2013-10-06 16:25:00,
2013-10-06 09:30:00,82.6,34.8,29.99,East,97,3.0,3.0,18,0.00,,,0.00,Wunderground v.1.15,2013-10-06 16:30:00,
2013-10-06 09:35:00,83.6,34.2,29.99,ESE,102,2.0,9.0,17,0.00,,,0.00,Wunderground v.1.15,2013-10-06 16:35:00,
2013-10-06 09:40:00,84.0,33.0,29.99,SE,135,4.0,4.0,16,0.00,,,0.00,Wunderground v.1.15,2013-10-06 16:40:00,
2013-10-06 09:45:00,84.0,31.4,30.00,ESE,111,4.0,9.0,15,0.00,,,0.00,Wunderground v.1.15,2013-10-06 16:45:00,
2013-10-06 09:50:00,84.0,31.4,30.00,East,91,5.0,5.0,15,0.00,,,0.00,Wunderground v.1.15,2013-10-06 16:50:00,
2013-10-06 09:55:00,84.0,31.4,30.00,East,85,11.0,11.0,15,0.00,,,0.00,Wunderground v.1.15,2013-10-06 16:55:00,
2013-10-06 10:00:00,84.0,31.4,30.00,ESE,110,2.0,5.0,15,0.00,,,0.00,Wunderground v.1.15,2013-10-06 17:00:00,
2013-10-06 10:05:00,84.1,31.4,30.00,East,98,0.0,7.0,15,0.00,,,0.00,Wunderground v.1.15,2013-10-06 17:05:00,
2013-10-06 10:10:00,84.7,30.2,30.00,ESE,121,4.0,5.0,14,0.00,,,0.00,Wunderground v.1.15,2013-10-06 17:10:00,
2013-10-06 10:15:00,84.9,30.4,29.99,East,97,4.0,9.0,14,0.00,,,0.00,Wunderground v.1.15,2013-10-06 17:15:00,
2013-10-06 10:20:00,84.9,30.4,29.99,East,97,5.0,6.0,14,0.00,,,0.00,Wunderground v.1.15,2013-10-06 17:20:00,
2013-10-06 10:25:00,84.7,30.2,29.99,ESE,122,2.0,7.0,14,0.00,,,0.00,Wunderground v.1.15,2013-10-06 17:25:00,
2013-10-06 10:30:00,85.1,30.5,29.99,ESE,111,3.0,4.0,14,0.00,,,0.00,Wunderground v.1.15,2013-10-06 17:30:00,
2013-10-06 10:35:00,85.7,29.2,29.99,ESE,113,2.0,7.0,13,0.00,,,0.00,Wunderground v.1.15,2013-10-06 17:35:00,
2013-10-06 10:40:00,86.5,29.8,29.99,East,101,2.0,4.0,13,0.00,,,0.00,Wunderground v.1.15,2013-10-06 17:40:00,
2013-10-06 10:45:00,87.0,30.2,29.99,SE,124,4.0,6.0,13,0.00,,,0.00,Wunderground v.1.15,2013-10-06 17:45:00,
2013-10-06 10:50:00,86.5,29.8,29.99,SE,127,2.0,6.0,13,0.00,,,0.00,Wunderground v.1.15,2013-10-06 17:50:00,
2013-10-06 10:55:00,87.0,30.2,29.99,ESE,103,3.0,6.0,13,0.00,,,0.00,Wunderground v.1.15,2013-10-06 17:55:00,
2013-10-06 11:00:00,87.4,30.5,29.99,East,96,2.0,3.0,13,0.00,,,0.00,Wunderground v.1.15,2013-10-06 18:00:00,
2013-10-06 11:05:00,88.0,29.0,29.99,ESE,106,1.0,5.0,12,0.00,,,0.00,Wunderground v.1.15,2013-10-06 18:05:00,
2013-10-06 11:10:00,87.6,28.7,29.99,SE,127,5.0,5.0,12,0.00,,,0.00,Wunderground v.1.15,2013-10-06 18:10:00,
2013-10-06 11:15:00,87.8,28.9,29.99,East,97,4.0,7.0,12,0.00,,,0.00,Wunderground v.1.15,2013-10-06 18:15:00,
2013-10-06 11:20:00,87.0,28.2,29.99,East,98,1.0,3.0,12,0.00,,,0.00,Wunderground v.1.15,2013-10-06 18:20:00,
2013-10-06 11:25:00,87.6,28.7,29.99,East,99,1.0,3.0,12,0.00,,,0.00,Wunderground v.1.15,2013-10-06 18:25:00,
2013-10-06 11:30:00,88.2,27.0,29.98,ESE,106,3.0,4.0,11,0.00,,,0.00,Wunderground v.1.15,2013-10-06 18:30:00,
2013-10-06 11:35:00,88.2,27.0,29.98,East,95,0.0,5.0,11,0.00,,,0.00,Wunderground v.1.15,2013-10-06 18:35:00,
2013-10-06 11:40:00,88.6,27.3,29.98,ESE,114,3.0,4.0,11,0.00,,,0.00,Wunderground v.1.15,2013-10-06 18:40:00,
2013-10-06 11:45:00,88.8,27.5,29.98,ESE,102,3.0,4.0,11,0.00,,,0.00,Wunderground v.1.15,2013-10-06 18:45:00,
2013-10-06 11:50:00,88.8,27.5,29.98,West,264,2.0,2.0,11,0.00,,,0.00,Wunderground v.1.15,2013-10-06 18:50:00,
2013-10-06 11:55:00,88.6,29.5,29.98,WNW,285,1.0,5.0,12,0.00,,,0.00,Wunderground v.1.15,2013-10-06 18:55:00,
2013-10-06 12:00:00,88.8,27.5,29.98,East,84,0.0,5.0,11,0.00,,,0.00,Wunderground v.1.15,2013-10-06 19:00:00,
2013-10-06 12:05:00,89.5,30.2,29.98,ESE,115,2.0,5.0,12,0.00,,,0.00,Wunderground v.1.15,2013-10-06 19:05:00,
2013-10-06 12:10:00,89.9,32.5,29.98,ESE,110,1.0,2.0,13,0.00,,,0.00,Wunderground v.1.15,2013-10-06 19:10:00,
2013-10-06 12:15:00,90.1,30.6,29.97,SE,127,1.0,3.0,12,0.00,,,0.00,Wunderground v.1.15,2013-10-06 19:15:00,
2013-10-06 12:21:00,89.7,30.3,29.97,SE,139,0.0,3.0,12,0.00,,,0.00,Wunderground v.1.15,2013-10-06 19:21:00,
2013-10-06 12:26:00,89.3,32.0,29.97,WNW,291,4.0,5.0,13,0.00,,,0.00,Wunderground v.1.15,2013-10-06 19:26:00,
2013-10-06 12:31:00,89.3,32.0,29.97,SE,127,2.0,2.0,13,0.00,,,0.00,Wunderground v.1.15,2013-10-06 19:31:00,
2013-10-06 12:36:00,89.3,30.0,29.97,SE,128,3.0,3.0,12,0.00,,,0.00,Wunderground v.1.15,2013-10-06 19:36:00,
2013-10-06 12:41:00,89.0,31.8,29.97,West,280,1.0,3.0,13,0.00,,,0.00,Wunderground v.1.15,2013-10-06 19:41:00,
2013-10-06 12:46:00,89.5,32.2,29.98,West,271,5.0,5.0,13,0.00,,,0.00,Wunderground v.1.15,2013-10-06 19:46:00,
2013-10-06 12:51:00,89.5,32.2,29.98,ENE,59,0.0,1.0,13,0.00,,,0.00,Wunderground v.1.15,2013-10-06 19:51:00,
2013-10-06 12:56:00,89.5,30.2,29.98,SE,142,0.0,4.0,12,0.00,,,0.00,Wunderground v.1.15,2013-10-06 19:56:00,
2013-10-06 13:01:00,88.8,27.5,29.97,ESE,120,2.0,3.0,11,0.00,,,0.00,Wunderground v.1.15,2013-10-06 20:01:00,
2013-10-06 13:06:00,88.6,29.5,29.97,WNW,284,0.0,6.0,12,0.00,,,0.00,Wunderground v.1.15,2013-10-06 20:06:00,
2013-10-06 13:11:00,88.6,35.0,29.97,WNW,286,0.0,2.0,15,0.00,,,0.00,Wunderground v.1.15,2013-10-06 20:11:00,
2013-10-06 13:16:00,88.8,38.4,29.97,NW,309,2.0,6.0,17,0.00,,,0.00,Wunderground v.1.15,2013-10-06 20:16:00,
2013-10-06 13:21:00,87.0,41.1,29.97,West,262,1.0,3.0,20,0.00,,,0.00,Wunderground v.1.15,2013-10-06 20:21:00,
2013-10-06 13:26:00,84.7,40.4,29.97,South,191,1.0,11.0,21,0.00,,,0.00,Wunderground v.1.15,2013-10-06 20:26:00,
2013-10-06 13:31:00,83.2,39.2,29.97,WNW,296,2.0,4.0,21,0.00,,,0.00,Wunderground v.1.15,2013-10-06 20:31:00,
2013-10-06 13:36:00,81.4,37.7,29.97,NW,307,3.0,9.0,21,0.00,,,0.00,Wunderground v.1.15,2013-10-06 20:36:00,
2013-10-06 13:41:00,80.1,35.4,29.97,WNW,287,2.0,5.0,20,0.00,,,0.00,Wunderground v.1.15,2013-10-06 20:41:00,
2013-10-06 13:46:00,79.4,37.2,29.96,NW,309,0.0,9.0,22,0.00,,,0.00,Wunderground v.1.15,2013-10-06 20:46:00,
2013-10-06 13:51:00,79.2,34.6,29.96,West,274,0.0,4.0,20,0.00,,,0.00,Wunderground v.1.15,2013-10-06 20:51:00,
2013-10-06 13:56:00,79.9,36.5,29.96,NNW,344,0.0,4.0,21,0.00,,,0.00,Wunderground v.1.15,2013-10-06 20:56:00,
2013-10-06 14:01:00,81.1,37.5,29.96,North,359,2.0,5.0,21,0.00,,,0.00,Wunderground v.1.15,2013-10-06 21:01:00,
2013-10-06 14:06:00,80.9,36.1,29.96,North,0,0.0,5.0,20,0.00,,,0.00,Wunderground v.1.15,2013-10-06 21:06:00,
2013-10-06 14:11:00,81.2,36.3,29.96,NW,316,1.0,5.0,20,0.00,,,0.00,Wunderground v.1.15,2013-10-06 21:11:00,
2013-10-06 14:16:00,81.1,36.2,29.96,NW,326,2.0,7.0,20,0.00,,,0.00,Wunderground v.1.15,2013-10-06 21:16:00,
2013-10-06 14:21:00,80.7,34.6,29.96,SW,227,1.0,4.0,19,0.00,,,0.00,Wunderground v.1.15,2013-10-06 21:21:00,
2013-10-06 14:26:00,80.9,34.8,29.96,SW,229,0.0,4.0,19,0.00,,,0.00,Wunderground v.1.15,2013-10-06 21:26:00,
2013-10-06 14:31:00,81.1,33.6,29.96,SSE,154,1.0,2.0,18,0.00,,,0.00,Wunderground v.1.15,2013-10-06 21:31:00,
2013-10-06 14:36:00,80.7,33.2,29.96,SSE,159,0.0,5.0,18,0.00,,,0.00,Wunderground v.1.15,2013-10-06 21:36:00,
2013-10-06 14:41:00,80.9,33.4,29.96,SE,131,2.0,3.0,18,0.00,,,0.00,Wunderground v.1.15,2013-10-06 21:41:00,
2013-10-06 14:46:00,81.1,33.6,29.96,SSE,149,0.0,3.0,18,0.00,,,0.00,Wunderground v.1.15,2013-10-06 21:46:00,
2013-10-06 14:51:00,80.7,31.8,29.96,SE,131,0.0,2.0,17,0.00,,,0.00,Wunderground v.1.15,2013-10-06 21:51:00,
2013-10-06 14:56:00,79.9,31.2,29.96,SE,131,0.0,2.0,17,0.00,,,0.00,Wunderground v.1.15,2013-10-06 21:56:00,
2013-10-06 15:01:00,79.8,31.1,29.95,North,359,1.0,4.0,17,0.00,,,0.00,Wunderground v.1.15,2013-10-06 22:01:00,
2013-10-06 15:06:00,79.6,29.4,29.95,NNE,25,0.0,4.0,16,0.00,,,0.00,Wunderground v.1.15,2013-10-06 22:06:00,
2013-10-06 15:11:00,79.8,28.0,29.95,NNE,25,0.0,2.0,15,0.00,,,0.00,Wunderground v.1.15,2013-10-06 22:11:00,
2013-10-06 15:16:00,79.9,28.1,29.95,West,271,5.0,5.0,15,0.00,,,0.00,Wunderground v.1.15,2013-10-06 22:16:00,
2013-10-06 15:21:00,79.9,32.6,29.95,SSE,148,0.0,1.0,18,0.00,,,0.00,Wunderground v.1.15,2013-10-06 22:21:00,
2013-10-06 15:26:00,79.8,32.5,29.95,WNW,290,0.0,4.0,18,0.00,,,0.00,Wunderground v.1.15,2013-10-06 22:26:00,
2013-10-06 15:31:00,79.6,29.4,29.94,ESE,103,0.0,4.0,16,0.00,,,0.00,Wunderground v.1.15,2013-10-06 22:31:00,
2013-10-06 15:36:00,79.6,30.9,29.94,North,359,1.0,4.0,17,0.00,,,0.00,Wunderground v.1.15,2013-10-06 22:36:00,
2013-10-06 15:41:00,79.8,29.6,29.94,North,359,0.0,1.0,16,0.00,,,0.00,Wunderground v.1.15,2013-10-06 22:41:00,
2013-10-06 15:46:00,80.1,31.3,29.94,West,260,2.0,4.0,17,0.00,,,0.00,Wunderground v.1.15,2013-10-06 22:46:00,
2013-10-06 15:51:00,80.1,28.3,29.94,SW,214,0.0,3.0,15,0.00,,,0.00,Wunderground v.1.15,2013-10-06 22:51:00,
2013-10-06 15:56:00,79.9,28.1,29.94,NNW,342,0.0,3.0,15,0.00,,,0.00,Wunderground v.1.15,2013-10-06 22:56:00,
2013-10-06 16:01:00,79.9,29.7,29.94,SSE,150,0.0,3.0,16,0.00,,,0.00,Wunderground v.1.15,2013-10-06 23:01:00,
2013-10-06 16:06:00,80.1,29.8,29.94,NNE,19,2.0,3.0,16,0.00,,,0.00,Wunderground v.1.15,2013-10-06 23:06:00,
2013-10-06 16:11:00,79.4,27.7,29.94,NNW,348,0.0,1.0,15,0.00,,,0.00,Wunderground v.1.15,2013-10-06 23:11:00,
2013-10-06 16:16:00,78.8,28.8,29.94,North,356,0.0,2.0,16,0.00,,,0.00,Wunderground v.1.15,2013-10-06 23:16:00,
2013-10-06 16:21:00,78.5,30.0,29.94,North,1,0.0,1.0,17,0.00,,,0.00,Wunderground v.1.15,2013-10-06 23:21:00,
2013-10-06 16:27:00,78.3,29.9,29.94,NNE,21,0.0,4.0,17,0.00,,,0.00,Wunderground v.1.15,2013-10-06 23:27:00,
2013-10-06 16:32:00,77.9,28.1,29.94,North,357,0.0,3.0,16,0.00,,,0.00,Wunderground v.1.15,2013-10-06 23:32:00,
2013-10-06 16:37:00,77.7,27.9,29.94,North,6,0.0,3.0,16,0.00,,,0.00,Wunderground v.1.15,2013-10-06 23:37:00,
2013-10-06 16:42:00,77.4,29.1,29.94,North,6,0.0,1.0,17,0.00,,,0.00,Wunderground v.1.15,2013-10-06 23:42:00,
2013-10-06 16:47:00,77.2,27.5,29.94,North,10,0.0,1.0,16,0.00,,,0.00,Wunderground v.1.15,2013-10-06 23:47:00,
2013-10-06 16:52:00,76.8,28.7,29.94,North,7,1.0,2.0,17,0.00,,,0.00,Wunderground v.1.15,2013-10-06 23:52:00,
2013-10-06 16:57:00,76.5,29.8,29.94,North,352,0.0,3.0,18,0.00,,,0.00,Wunderground v.1.15,2013-10-06 23:57:00,
2013-10-06 17:02:00,76.3,29.7,29.94,North,352,1.0,1.0,18,0.00,,,0.00,Wunderground v.1.15,2013-10-07 00:02:00,
2013-10-06 17:07:00,75.8,27.8,29.94,North,352,0.0,1.0,17,0.00,,,0.00,Wunderground v.1.15,2013-10-07 00:07:00,
2013-10-06 17:12:00,75.3,28.8,29.94,North,352,0.0,1.0,18,0.00,,,0.00,Wunderground v.1.15,2013-10-07 00:12:00,
2013-10-06 17:17:00,74.6,28.3,29.94,North,352,0.0,1.0,18,0.00,,,0.00,Wunderground v.1.15,2013-10-07 00:17:00,
2013-10-06 17:22:00,74.2,27.9,29.94,NW,311,0.0,2.0,18,0.00,,,0.00,Wunderground v.1.15,2013-10-07 00:22:00,
2013-10-06 17:27:00,73.9,27.7,29.94,NW,311,0.0,2.0,18,0.00,,,0.00,Wunderground v.1.15,2013-10-07 00:27:00,
2013-10-06 17:32:00,73.5,27.4,29.93,NW,311,0.0,0.0,18,0.00,,,0.00,Wunderground v.1.15,2013-10-07 00:32:00,
2013-10-06 17:37:00,73.2,27.1,29.93,NW,311,0.0,1.0,18,0.00,,,0.00,Wunderground v.1.15,2013-10-07 00:37:00,
2013-10-06 17:42:00,73.0,28.3,29.93,NW,311,0.0,0.0,19,0.00,,,0.00,Wunderground v.1.15,2013-10-07 00:42:00,
2013-10-06 17:47:00,72.7,29.3,29.93,NW,311,0.0,0.0,20,0.00,,,0.00,Wunderground v.1.15,2013-10-07 00:47:00,
2013-10-06 17:52:00,72.1,28.8,29.93,NW,311,0.0,1.0,20,0.00,,,0.00,Wunderground v.1.15,2013-10-07 00:52:00,
2013-10-06 17:57:00,71.8,30.9,29.93,NW,311,0.0,1.0,22,0.00,,,0.00,Wunderground v.1.15,2013-10-07 00:57:00,
2013-10-06 18:02:00,71.5,31.7,29.93,NW,311,0.0,0.0,23,0.00,,,0.00,Wunderground v.1.15,2013-10-07 01:02:00,
2013-10-06 18:07:00,71.1,32.5,29.93,NW,311,0.0,0.0,24,0.00,,,0.00,Wunderground v.1.15,2013-10-07 01:07:00,
2013-10-06 18:12:00,70.8,35.1,29.93,NW,311,0.0,0.0,27,0.00,,,0.00,Wunderground v.1.15,2013-10-07 01:12:00,
2013-10-06 18:18:00,70.1,34.5,29.93,NW,311,0.0,2.0,27,0.00,,,0.00,Wunderground v.1.15,2013-10-07 01:18:00,
2013-10-06 18:23:00,69.4,37.4,29.93,NW,311,0.0,1.0,31,0.00,,,0.00,Wunderground v.1.15,2013-10-07 01:23:00,
2013-10-06 18:28:00,68.8,37.7,29.93,NW,311,0.0,1.0,32,0.00,,,0.00,Wunderground v.1.15,2013-10-07 01:28:00,
2013-10-06 18:33:00,68.1,37.9,29.93,NW,311,0.0,0.0,33,0.00,,,0.00,Wunderground v.1.15,2013-10-07 01:33:00,
2013-10-06 18:38:00,67.4,38.0,29.93,NW,311,0.0,0.0,34,0.00,,,0.00,Wunderground v.1.15,2013-10-07 01:38:00,
2013-10-06 18:43:00,66.8,38.3,29.93,NW,311,0.0,0.0,35,0.00,,,0.00,Wunderground v.1.15,2013-10-07 01:43:00,
2013-10-06 18:48:00,66.3,37.8,29.93,NW,311,0.0,0.0,35,0.00,,,0.00,Wunderground v.1.15,2013-10-07 01:48:00,
2013-10-06 18:53:00,65.6,36.5,29.93,NW,311,0.0,0.0,34,0.00,,,0.00,Wunderground v.1.15,2013-10-07 01:53:00,
2013-10-06 18:58:00,65.2,36.1,29.93,NW,311,0.0,1.0,34,0.00,,,0.00,Wunderground v.1.15,2013-10-07 01:58:00,
2013-10-06 19:03:00,64.8,35.8,29.93,NW,311,0.0,1.0,34,0.00,,,0.00,Wunderground v.1.15,2013-10-07 02:03:00,
2013-10-06 19:08:00,64.5,34.0,29.93,NW,311,0.0,1.0,32,0.00,,,0.00,Wunderground v.1.15,2013-10-07 02:08:00,
2013-10-06 19:13:00,64.3,33.0,29.93,NW,311,0.0,1.0,31,0.00,,,0.00,Wunderground v.1.15,2013-10-07 02:13:00,
2013-10-06 19:18:00,64.3,32.2,29.93,NW,311,0.0,1.0,30,0.00,,,0.00,Wunderground v.1.15,2013-10-07 02:18:00,
2013-10-06 19:23:00,64.3,32.2,29.93,NW,311,0.0,1.0,30,0.00,,,0.00,Wunderground v.1.15,2013-10-07 02:23:00,
2013-10-06 19:28:00,64.5,31.5,29.93,NW,311,0.0,2.0,29,0.00,,,0.00,Wunderground v.1.15,2013-10-07 02:28:00,
2013-10-06 19:33:00,64.3,31.3,29.93,NW,311,0.0,1.0,29,0.00,,,0.00,Wunderground v.1.15,2013-10-07 02:33:00,
2013-10-06 19:38:00,64.0,31.1,29.93,NW,311,0.0,1.0,29,0.00,,,0.00,Wunderground v.1.15,2013-10-07 02:38:00,
2013-10-06 19:43:00,63.7,30.8,29.93,NW,311,0.0,0.0,29,0.00,,,0.00,Wunderground v.1.15,2013-10-07 02:43:00,
2013-10-06 19:48:00,63.2,29.5,29.93,NW,311,0.0,0.0,28,0.00,,,0.00,Wunderground v.1.15,2013-10-07 02:48:00,
2013-10-06 19:53:00,62.9,29.3,29.93,NW,311,0.0,0.0,28,0.00,,,0.00,Wunderground v.1.15,2013-10-07 02:53:00,
2013-10-06 19:58:00,62.6,29.9,29.93,NW,311,0.0,0.0,29,0.00,,,0.00,Wunderground v.1.15,2013-10-07 02:58:00,
2013-10-06 20:03:00,62.3,29.6,29.93,NW,311,0.0,0.0,29,0.00,,,0.00,Wunderground v.1.15,2013-10-07 03:03:00,
2013-10-06 20:08:00,62.1,30.3,29.93,NW,311,0.0,0.0,30,0.00,,,0.00,Wunderground v.1.15,2013-10-07 03:08:00,
2013-10-06 20:13:00,61.8,30.0,29.93,NW,311,0.0,0.0,30,0.00,,,0.00,Wunderground v.1.15,2013-10-07 03:13:00,
2013-10-06 20:18:00,61.5,29.7,29.93,NW,311,0.0,0.0,30,0.00,,,0.00,Wunderground v.1.15,2013-10-07 03:18:00,
2013-10-06 20:23:00,61.2,29.5,29.93,NW,311,0.0,1.0,30,0.00,,,0.00,Wunderground v.1.15,2013-10-07 03:23:00,
2013-10-06 20:28:00,61.3,30.4,29.93,NW,311,0.0,1.0,31,0.00,,,0.00,Wunderground v.1.15,2013-10-07 03:28:00,
2013-10-06 20:33:00,61.2,30.3,29.93,NW,311,0.0,1.0,31,0.00,,,0.00,Wunderground v.1.15,2013-10-07 03:33:00,
2013-10-06 20:38:00,61.3,30.4,29.93,NW,311,0.0,1.0,31,0.00,,,0.00,Wunderground v.1.15,2013-10-07 03:38:00,
2013-10-06 20:43:00,61.2,31.1,29.93,NW,311,0.0,0.0,32,0.00,,,0.00,Wunderground v.1.15,2013-10-07 03:43:00,
2013-10-06 20:48:00,61.0,31.7,29.93,NW,311,0.0,0.0,33,0.00,,,0.00,Wunderground v.1.15,2013-10-07 03:48:00,
2013-10-06 20:53:00,60.5,31.2,29.93,NW,311,0.0,0.0,33,0.00,,,0.00,Wunderground v.1.15,2013-10-07 03:53:00,
2013-10-06 20:58:00,60.2,30.2,29.93,NW,311,0.0,0.0,32,0.00,,,0.00,Wunderground v.1.15,2013-10-07 03:58:00,
2013-10-06 21:01:00,60.2,29.4,29.93,NW,311,0.0,0.0,31,0.00,,,0.00,Wunderground v.1.15,2013-10-07 04:01:00,
2013-10-06 21:07:00,60.1,29.3,29.93,NW,311,0.0,0.0,31,0.00,,,0.00,Wunderground v.1.15,2013-10-07 04:07:00,
2013-10-06 21:12:00,59.9,29.2,29.93,NW,311,0.0,0.0,31,0.00,,,0.00,Wunderground v.1.15,2013-10-07 04:12:00,
2013-10-06 21:17:00,59.5,30.3,29.92,NW,311,0.0,1.0,33,0.00,,,0.00,Wunderground v.1.15,2013-10-07 04:17:00,
2013-10-06 21:22:00,59.2,30.8,29.92,NW,311,0.0,0.0,34,0.00,,,0.00,Wunderground v.1.15,2013-10-07 04:22:00,
2013-10-06 21:27:00,58.9,29.8,29.92,NW,311,0.0,0.0,33,0.00,,,0.00,Wunderground v.1.15,2013-10-07 04:27:00,
2013-10-06 21:32:00,58.6,31.0,29.92,NW,311,0.0,0.0,35,0.00,,,0.00,Wunderground v.1.15,2013-10-07 04:32:00,
2013-10-06 21:37:00,58.3,30.7,29.92,NW,311,0.0,0.0,35,0.00,,,0.00,Wunderground v.1.15,2013-10-07 04:37:00,
2013-10-06 21:42:00,58.0,29.8,29.92,NW,311,0.0,0.0,34,0.00,,,0.00,Wunderground v.1.15,2013-10-07 04:42:00,
2013-10-06 21:47:00,57.8,29.6,29.93,NW,311,0.0,0.0,34,0.00,,,0.00,Wunderground v.1.15,2013-10-07 04:47:00,
2013-10-06 21:52:00,57.8,30.3,29.93,NW,311,0.0,0.0,35,0.00,,,0.00,Wunderground v.1.15,2013-10-07 04:52:00,
2013-10-06 21:57:00,57.6,30.1,29.93,NW,311,0.0,0.0,35,0.00,,,0.00,Wunderground v.1.15,2013-10-07 04:57:00,
2013-10-06 22:02:00,57.6,30.1,29.93,NW,311,0.0,0.0,35,0.00,,,0.00,Wunderground v.1.15,2013-10-07 05:02:00,
2013-10-06 22:07:00,57.6,30.1,29.93,NW,311,0.0,0.0,35,0.00,,,0.00,Wunderground v.1.15,2013-10-07 05:07:00,
2013-10-06 22:12:00,57.8,30.3,29.93,NW,311,0.0,0.0,35,0.00,,,0.00,Wunderground v.1.15,2013-10-07 05:12:00,
2013-10-06 22:17:00,58.0,30.5,29.93,NW,311,0.0,0.0,35,0.00,,,0.00,Wunderground v.1.15,2013-10-07 05:17:00,
2013-10-06 22:22:00,57.8,31.0,29.93,NW,311,0.0,0.0,36,0.00,,,0.00,Wunderground v.1.15,2013-10-07 05:22:00,
2013-10-06 22:27:00,57.6,30.8,29.93,NW,311,0.0,0.0,36,0.00,,,0.00,Wunderground v.1.15,2013-10-07 05:27:00,
2013-10-06 22:32:00,57.5,31.4,29.93,NW,311,0.0,0.0,37,0.00,,,0.00,Wunderground v.1.15,2013-10-07 05:32:00,
2013-10-06 22:37:00,57.3,31.9,29.93,NW,311,0.0,0.0,38,0.00,,,0.00,Wunderground v.1.15,2013-10-07 05:37:00,
2013-10-06 22:42:00,57.0,30.3,29.93,NW,311,0.0,0.0,36,0.00,,,0.00,Wunderground v.1.15,2013-10-07 05:42:00,
2013-10-06 22:47:00,56.6,30.6,29.93,NW,311,0.0,0.0,37,0.00,,,0.00,Wunderground v.1.15,2013-10-07 05:47:00,
2013-10-06 22:52:00,56.2,30.9,29.93,NW,311,0.0,0.0,38,0.00,,,0.00,Wunderground v.1.15,2013-10-07 05:52:00,
2013-10-06 22:57:00,56.0,30.1,29.93,NW,311,0.0,1.0,37,0.00,,,0.00,Wunderground v.1.15,2013-10-07 05:57:00,
2013-10-06 23:02:00,56.2,30.9,29.93,NW,311,0.0,0.0,38,0.00,,,0.00,Wunderground v.1.15,2013-10-07 06:02:00,
2013-10-06 23:07:00,56.2,30.2,29.93,NW,311,0.0,0.0,37,0.00,,,0.00,Wunderground v.1.15,2013-10-07 06:07:00,
2013-10-06 23:12:00,56.0,30.7,29.93,NW,311,0.0,0.0,38,0.00,,,0.00,Wunderground v.1.15,2013-10-07 06:12:00,
2013-10-06 23:17:00,55.9,30.6,29.93,NW,311,1.0,1.0,38,0.00,,,0.00,Wunderground v.1.15,2013-10-07 06:17:00,
2013-10-06 23:22:00,56.0,30.7,29.93,NW,311,0.0,0.0,38,0.00,,,0.00,Wunderground v.1.15,2013-10-07 06:22:00,
2013-10-06 23:27:00,56.2,30.9,29.93,NW,311,0.0,0.0,38,0.00,,,0.00,Wunderground v.1.15,2013-10-07 06:27:00,
2013-10-06 23:32:00,56.0,30.1,29.92,NW,311,0.0,0.0,37,0.00,,,0.00,Wunderground v.1.15,2013-10-07 06:32:00,
2013-10-06 23:37:00,56.0,30.7,29.92,NW,311,0.0,0.0,38,0.00,,,0.00,Wunderground v.1.15,2013-10-07 06:37:00,
2013-10-06 23:42:00,56.0,31.4,29.92,NW,311,0.0,0.0,39,0.00,,,0.00,Wunderground v.1.15,2013-10-07 06:42:00,
2013-10-06 23:47:00,55.7,30.5,29.91,NW,311,0.0,0.0,38,0.00,,,0.00,Wunderground v.1.15,2013-10-07 06:47:00,
2013-10-06 23:52:00,55.3,31.4,29.91,NW,311,0.0,0.0,40,0.00,,,0.00,Wunderground v.1.15,2013-10-07 06:52:00,
2013-10-06 23:57:00,54.8,31.5,29.91,NW,311,0.0,0.0,41,0.00,,,0.00,Wunderground v.1.15,2013-10-07 06:57:00,